• în România
  • Lista ţărilor
  • Pe 7 zile
  • Temperatura apei
  • Hartă satelitară
  • Meteo pe hartă
  • Widget-uri
  • user-avatar
    Intrare

    Meteo pe oră la Dalat

    Astăzi, 16 August, Joi

    Timp Temperatura Precipitaţii Vânt Presiune Umiditate
    00:00 +19°C° 0,6 mm 2 m/s 650 mmHg 91%
    01:00 +19°C° 0 mm 3 m/s 650 mmHg 90%
    02:00 +19°C° 0,4 mm 3 m/s 650 mmHg 91%
    03:00 +19°C° 0,4 mm 3 m/s 649 mmHg 92%
    04:00 +18°C° 0,4 mm 3 m/s 649 mmHg 92%
    05:00 +19°C° 0,1 mm 3 m/s 649 mmHg 91%
    06:00 +19°C° 0,1 mm 3 m/s 650 mmHg 90%
    07:00 +19°C° 0 mm 3 m/s 650 mmHg 88%
    08:00 +21°C° 0,1 mm 3 m/s 650 mmHg 82%
    09:00 +22°C° 0,1 mm 3 m/s 650 mmHg 77%
    10:00 +23°C° 0,1 mm 4 m/s 651 mmHg 72%
    11:00 +25°C° 0,1 mm 4 m/s 651 mmHg 69%
    12:00 +25°C° 0,1 mm 4 m/s 650 mmHg 66%
    13:00 +26°C° 0 mm 4 m/s 650 mmHg 63%
    14:00 +26°C° 0,2 mm 4 m/s 650 mmHg 66%
    15:00 +25°C° 0,2 mm 4 m/s 649 mmHg 69%
    16:00 +23°C° 0,2 mm 4 m/s 649 mmHg 71%
    17:00 +22°C° 0,1 mm 3 m/s 649 mmHg 76%
    18:00 +21°C° 0,1 mm 3 m/s 649 mmHg 81%
    19:00 +20°C° 0,1 mm 3 m/s 649 mmHg 86%
    20:00 +20°C° 0,1 mm 3 m/s 649 mmHg 87%
    21:00 +19°C° 0,1 mm 3 m/s 649 mmHg 89%
    22:00 +19°C° 0,1 mm 2 m/s 649 mmHg 90%
    23:00 +19°C° 0,1 mm 2 m/s 649 mmHg 90%

    Mâine, 17 August, Vineri

    Timp Temperatura Precipitaţii Vânt Presiune Umiditate
    00:00 +19°C° 0,1 mm 2 m/s 649 mmHg 90%
    01:00 +19°C° 0,1 mm 2 m/s 649 mmHg 90%
    02:00 +19°C° 0,1 mm 2 m/s 648 mmHg 90%
    03:00 +19°C° 0,1 mm 2 m/s 648 mmHg 90%
    04:00 +18°C° 0,1 mm 2 m/s 648 mmHg 90%
    05:00 +19°C° 0 mm 2 m/s 648 mmHg 89%
    06:00 +19°C° 0 mm 2 m/s 648 mmHg 87%
    07:00 +19°C° 0 mm 2 m/s 648 mmHg 85%
    08:00 +21°C° 0 mm 2 m/s 649 mmHg 81%
    09:00 +22°C° 0 mm 3 m/s 649 mmHg 76%
    10:00 +24°C° 0 mm 3 m/s 650 mmHg 71%
    11:00 +24°C° 0,3 mm 3 m/s 649 mmHg 73%
    12:00 +24°C° 0,3 mm 3 m/s 649 mmHg 74%
    13:00 +24°C° 0,3 mm 3 m/s 649 mmHg 76%
    14:00 +24°C° 0,4 mm 3 m/s 648 mmHg 77%
    15:00 +24°C° 0,4 mm 3 m/s 648 mmHg 79%
    16:00 +22°C° 0,4 mm 3 m/s 648 mmHg 81%
    17:00 +21°C° 0,1 mm 2 m/s 648 mmHg 84%
    18:00 +20°C° 0,1 mm 2 m/s 648 mmHg 87%
    19:00 +19°C° 0,1 mm 2 m/s 648 mmHg 90%
    20:00 +19°C° 0,2 mm 2 m/s 648 mmHg 91%
    21:00 +19°C° 0,2 mm 2 m/s 649 mmHg 92%
    22:00 +19°C° 0,2 mm 2 m/s 649 mmHg 93%
    23:00 +19°C° 0,1 mm 2 m/s 649 mmHg 93%

    Poimâine, 18 August, Sâmbătă

    Timp Temperatura Precipitaţii Vânt Presiune Umiditate
    00:00 +19°C° 0,1 mm 2 m/s 649 mmHg 94%
    01:00 +18°C° 0,1 mm 2 m/s 649 mmHg 94%
    02:00 +18°C° 0,1 mm 2 m/s 649 mmHg 93%
    03:00 +18°C° 0,1 mm 2 m/s 648 mmHg 93%
    04:00 +18°C° 0,1 mm 2 m/s 648 mmHg 93%
    05:00 +19°C° 0 mm 2 m/s 649 mmHg 91%
    06:00 +19°C° 0 mm 2 m/s 649 mmHg 89%
    07:00 +19°C° 0 mm 2 m/s 650 mmHg 88%
    08:00 +21°C° 0 mm 2 m/s 650 mmHg 81%
    09:00 +24°C° 0 mm 3 m/s 651 mmHg 74%
    10:00 +25°C° 0 mm 3 m/s 651 mmHg 67%
    11:00 +26°C° 0,2 mm 3 m/s 651 mmHg 66%
    12:00 +26°C° 0,2 mm 3 m/s 651 mmHg 66%
    13:00 +26°C° 0,2 mm 3 m/s 650 mmHg 65%
    14:00 +26°C° 1 mm 3 m/s 650 mmHg 70%
    15:00 +25°C° 1 mm 2 m/s 649 mmHg 75%
    16:00 +24°C° 1 mm 2 m/s 649 mmHg 80%
    17:00 +23°C° 0,8 mm 2 m/s 649 mmHg 85%
    18:00 +21°C° 0,8 mm 2 m/s 649 mmHg 90%
    19:00 +19°C° 0,8 mm 2 m/s 649 mmHg 95%
    20:00 +19°C° 0,3 mm 2 m/s 650 mmHg 95%
    21:00 +19°C° 0,3 mm 2 m/s 650 mmHg 95%
    22:00 +19°C° 0,3 mm 2 m/s 651 mmHg 95%
    23:00 +19°C° 0,6 mm 2 m/s 650 mmHg 95%

    19 August, Duminică

    Timp Temperatura Precipitaţii Vânt Presiune Umiditate
    00:00 +19°C° 0,6 mm 2 m/s 650 mmHg 94%
    01:00 +19°C° 0,6 mm 2 m/s 650 mmHg 94%
    02:00 +19°C° 0,7 mm 2 m/s 650 mmHg 95%
    03:00 +19°C° 0,7 mm 2 m/s 650 mmHg 95%
    04:00 +18°C° 0,7 mm 2 m/s 649 mmHg 95%
    05:00 +19°C° 0,2 mm 2 m/s 650 mmHg 94%
    06:00 +19°C° 0,2 mm 2 m/s 650 mmHg 93%
    07:00 +19°C° 0,2 mm 2 m/s 651 mmHg 93%
    08:00 +20°C° 0,2 mm 2 m/s 651 mmHg 88%
    09:00 +21°C° 0,2 mm 2 m/s 652 mmHg 84%
    10:00 +23°C° 0,2 mm 2 m/s 652 mmHg 79%
    11:00 +24°C° 0,4 mm 2 m/s 652 mmHg 79%
    12:00 +24°C° 0,4 mm 2 m/s 652 mmHg 78%
    13:00 +25°C° 0,4 mm 2 m/s 651 mmHg 77%
    14:00 +25°C° 0,6 mm 2 m/s 651 mmHg 78%
    15:00 +24°C° 0,6 mm 2 m/s 650 mmHg 79%
    16:00 +24°C° 0,6 mm 2 m/s 650 mmHg 80%
    17:00 +23°C° 0,2 mm 2 m/s 650 mmHg 84%
    18:00 +21°C° 0,2 mm 2 m/s 650 mmHg 88%
    19:00 +21°C° 0,2 mm 1 m/s 651 mmHg 93%
    20:00 +20°C° 0,3 mm 1 m/s 651 mmHg 93%
    21:00 +20°C° 0,3 mm 1 m/s 651 mmHg 94%
    22:00 +20°C° 0,3 mm 1 m/s 652 mmHg 94%
    23:00 +19°C° 0,1 mm 1 m/s 651 mmHg 94%

    20 August, Luni

    Timp Temperatura Precipitaţii Vânt Presiune Umiditate
    00:00 +19°C° 0,1 mm 1 m/s 651 mmHg 94%
    01:00 +19°C° 0,1 mm 1 m/s 650 mmHg 93%
    02:00 +19°C° 0 mm 1 m/s 650 mmHg 93%
    03:00 +18°C° 0 mm 2 m/s 650 mmHg 93%
    04:00 +18°C° 0 mm 2 m/s 650 mmHg 92%
    05:00 +19°C° 0 mm 2 m/s 651 mmHg 90%
    06:00 +19°C° 0 mm 2 m/s 651 mmHg 87%
    07:00 +20°C° 0 mm 2 m/s 652 mmHg 85%
    08:00 +23°C° 0 mm 2 m/s 652 mmHg 76%
    09:00 +25°C° 0 mm 2 m/s 653 mmHg 67%
    10:00 +27°C° 0 mm 2 m/s 654 mmHg 59%
    11:00 +27°C° 0,5 mm 2 m/s 653 mmHg 62%
    12:00 +27°C° 0,5 mm 2 m/s 653 mmHg 65%
    13:00 +27°C° 0,5 mm 2 m/s 652 mmHg 69%
    14:00 +26°C° 1,6 mm 2 m/s 651 mmHg 73%
    15:00 +25°C° 1,6 mm 2 m/s 651 mmHg 78%
    16:00 +25°C° 1,6 mm 2 m/s 650 mmHg 83%
    17:00 +23°C° 0,7 mm 2 m/s 650 mmHg 86%
    18:00 +22°C° 0,7 mm 1 m/s 651 mmHg 90%
    19:00 +21°C° 0,7 mm 1 m/s 651 mmHg 93%
    20:00 +20°C° 0,5 mm 1 m/s 651 mmHg 94%
    21:00 +20°C° 0,5 mm 1 m/s 651 mmHg 95%
    22:00 +20°C° 0,5 mm 1 m/s 651 mmHg 95%
    23:00 +20°C° 0 mm 1 m/s 651 mmHg 95%

    21 August, Marţi

    Timp Temperatura Precipitaţii Vânt Presiune Umiditate
    00:00 +20°C° 0 mm 1 m/s 650 mmHg 95%
    01:00 +20°C° 0 mm 1 m/s 650 mmHg 95%
    02:00 +19°C° 0 mm 1 m/s 650 mmHg 94%
    03:00 +19°C° 0 mm 1 m/s 649 mmHg 94%
    04:00 +19°C° 0 mm 1 m/s 649 mmHg 94%
    05:00 +19°C° 0 mm 2 m/s 650 mmHg 92%
    06:00 +19°C° 0 mm 2 m/s 650 mmHg 90%
    07:00 +20°C° 0 mm 2 m/s 650 mmHg 88%
    08:00 +23°C° 0 mm 2 m/s 651 mmHg 79%
    09:00 +24°C° 0 mm 2 m/s 652 mmHg 71%
    10:00 +26°C° 0 mm 3 m/s 652 mmHg 63%
    11:00 +27°C° 0 mm 3 m/s 652 mmHg 60%
    12:00 +28°C° 0 mm 3 m/s 651 mmHg 56%
    13:00 +29°C° 0 mm 3 m/s 651 mmHg 53%
    14:00 +28°C° 0,7 mm 3 m/s 651 mmHg 58%
    15:00 +27°C° 0,7 mm 2 m/s 650 mmHg 63%
    16:00 +27°C° 0,7 mm 2 m/s 650 mmHg 68%
    17:00 +25°C° 0,7 mm 2 m/s 650 mmHg 75%
    18:00 +23°C° 0,7 mm 2 m/s 650 mmHg 82%
    19:00 +20°C° 0,7 mm 2 m/s 650 mmHg 89%
    20:00 +20°C° 0 mm 2 m/s 650 mmHg 89%
    21:00 +20°C° 0 mm 2 m/s 650 mmHg 90%
    22:00 +19°C° 0 mm 2 m/s 650 mmHg 91%
    23:00 +19°C° 0 mm 2 m/s 650 mmHg 91%
    Arată mai mult